Satellite: PHARMSAT
Catalog number: 35002
Epoch time:      10244.90842306
Element set:    0358
Inclination:      040.4693 deg
RA of node:       110.7722 deg
Eccentricity:    0.0024551
Arg of perigee:   226.1949 deg
Mean anomaly:     133.6816 deg
Mean motion:   15.42952956 rev/day
Decay rate:      3.351e-05 rev/day^2
Epoch rev:           07250
Checksum:              275

Satellite: HAWKSAT1
Catalog number: 35003
Epoch time:      10245.87386776
Element set:     379
Inclination:      040.4634 deg
RA of node:       097.2710 deg
Eccentricity:    0.0023729
Arg of perigee:   251.7201 deg
Mean anomaly:     108.1032 deg
Mean motion:   15.46792395 rev/day
Decay rate:      6.889e-05 rev/day^2
Epoch rev:            7274
Checksum:              308

Satellite: CP6
Catalog number: 35004
Epoch time:      10244.91948864
Element set:    0376
Inclination:      040.4644 deg
RA of node:       101.4552 deg
Eccentricity:    0.0022938
Arg of perigee:   248.8287 deg
Mean anomaly:     111.0076 deg
Mean motion:   15.47887536 rev/day
Decay rate:      8.523e-05 rev/day^2
Epoch rev:           07260
Checksum:              308

Satellite: AEROCUB3
Catalog number: 35005
Epoch time:      10244.96043757
Element set:    0433
Inclination:      040.4684 deg
RA of node:       094.0503 deg
Eccentricity:    0.0021923
Arg of perigee:   275.6962 deg
Mean anomaly:     084.1359 deg
Mean motion:   15.56716967 rev/day
Decay rate:     3.3092e-04 rev/day^2
Epoch rev:           07269
Checksum:              310

Satellite: CASTOR
Catalog number: 35694
Epoch time:      10230.44082147
Element set:     655
Inclination:      051.5930 deg
RA of node:       222.0149 deg
Eccentricity:    0.0004218
Arg of perigee:   308.0851 deg
Mean anomaly:     053.0105 deg
Mean motion:   16.48877011 rev/day
Decay rate:   7.179566e-02 rev/day^2
Epoch rev:            6110
Checksum:              273

Satellite: METEOR-M
Catalog number: 35865
Epoch time:      10245.75419222
Element set:     618
Inclination:      098.7506 deg
RA of node:       298.9700 deg
Eccentricity:    0.0002772
Arg of perigee:   124.4149 deg
Mean anomaly:     235.7291 deg
Mean motion:   14.21831406 rev/day
Decay rate:       1.76e-06 rev/day^2
Epoch rev:            4974
Checksum:              306

Satellite: RS-38
Catalog number: 35869
Epoch time:      10245.78761686
Element set:     630
Inclination:      098.7498 deg
RA of node:       299.0409 deg
Eccentricity:    0.0005175
Arg of perigee:   133.5650 deg
Mean anomaly:     226.5927 deg
Mean motion:   14.21987762 rev/day
Decay rate:       1.77e-06 rev/day^2
Epoch rev:            4975
Checksum:              361

/EX


_______________________________________________
Via the Keps mailing list courtesy of AMSAT-NA
http://amsat.org/mailman/listinfo/keps

--- ViaMAIL!/WC v1.60d
 * Origin: Chowdanet (401-724-4410) telnet://chowdanet.com  (1:323/120)